Meath Environmental Platform

Observations for Trim Market St

Time AQI Temp °C Hum % Pres Pa CO μg/m³ H₂S μg/m³ NO μg/m³ NO₂ μg/m³ O₃ μg/m³ SO₂ μg/m³ PM1 μg/m³ PM2.5 μg/m³ PM10 μg/m³
Wednesday 26 August 2026
19:40 3 22.5 59 57,660 0 0 1.29 14.02 91.29 0 4.99 8.07 10.98
19:39 3 22.5 59 57,665 0 0 1.24 14.13 89.59 0 2.85 5.56 8.91
19:38 3 22.5 59 57,667 0 0 1.44 13.93 88.63 0 4.28 7.08 10.29
19:37 3 22.6 59 57,670 0 0 1.14 14.23 90.13 0 4.99 7.58 10.29
19:36 3 22.6 59 57,675 0 0 1.11 14.25 91.26 0 6.41 9.59 13.07
19:34 3 22.7 59 57,678 0 0 1.34 14.34 87.65 0 4.99 7.6 11
19:30 3 22.8 58 57,688 0 0 1.49 16.96 84.33 0 4.99 8.12 12.4
19:25 3 23 58 57,699 0 0.79 1.56 28.02 70.98 0 4.28 6.64 9.62
19:21 3 23.2 58 57,711 0 2.06 1.69 59.33 47.24 0 5.7 7.67 11.03
19:17 3 23.3 57 57,714 0 3.54 1.19 35.58 70.7 0 7.84 9.71 14.56
19:16 3 23.4 57 57,712 0 2.13 1.05 19.64 85.52 0 7.84 10.23 15.28
19:15 3 23.4 57 57,708 0 2.26 1.02 18.43 88.77 0 4.99 7.21 9.64
19:14 3 23.5 57 57,699 0 1.2 1.02 16.78 89.62 0 4.99 8.23 11.77
19:13 3 23.5 56 57,691 0 2.15 1.01 17.39 91.08 0 5.7 9.25 13.89
19:12 3 23.6 56 57,676 0 1.73 1 17.26 89.16 0 4.99 7.23 10.36
19:11 3 23.6 56 57,659 0 2.36 1.03 17.1 89.79 0 6.41 8.75 13.19
19:09 3 23.7 56 57,596 0 2.89 1.13 17.46 91.45 0 4.99 7.26 12.5
19:08 3 23.8 56 57,548 0 2.94 1.12 18.59 89.62 0 3.56 5.75 7.53
19:07 3 23.8 56 57,486 0 2.81 1.16 18.92 89 0 3.56 6.77 9.67
19:03 3 24 55 57,167 0 3.99 1.16 21.08 89.59 0 4.28 7.32 9.68